TimeCDT,TemperatureF,Dew PointF,Humidity,Sea Level PressureIn,VisibilityMPH,Wind Direction,Wind SpeedMPH,Gust SpeedMPH,PrecipitationIn,Events,Conditions,WindDirDegrees,DateUTC
12:53 AM,57.9,55.9,93,29.98,7.0,West,3.5,-,N/A,,Clear,260,2013-05-08 05:53:00
1:53 AM,57.0,55.0,93,29.96,6.0,West,5.8,-,N/A,,Clear,260,2013-05-08 06:53:00
2:53 AM,55.9,55.0,97,29.97,6.0,West,5.8,-,N/A,,Clear,270,2013-05-08 07:53:00
3:53 AM,55.9,54.0,93,29.97,7.0,West,5.8,-,N/A,,Clear,260,2013-05-08 08:53:00
4:53 AM,55.9,54.0,93,29.98,7.0,West,5.8,-,N/A,,Clear,260,2013-05-08 09:53:00
5:53 AM,55.9,54.0,93,30.00,7.0,West,4.6,-,N/A,,Clear,270,2013-05-08 10:53:00
6:53 AM,57.0,55.9,96,30.02,6.0,West,3.5,-,N/A,,Clear,260,2013-05-08 11:53:00
7:53 AM,64.0,57.9,80,30.03,10.0,Variable,3.5,-,N/A,,Clear,0,2013-05-08 12:53:00
8:53 AM,69.1,57.9,68,30.04,10.0,NNW,4.6,-,N/A,,Clear,330,2013-05-08 13:53:00
9:53 AM,73.9,57.9,57,30.04,10.0,North,8.1,-,N/A,,Clear,350,2013-05-08 14:53:00
10:53 AM,75.9,55.9,50,30.04,10.0,WNW,6.9,-,N/A,,Clear,290,2013-05-08 15:53:00
11:53 AM,78.1,54.0,43,30.04,10.0,Calm,Calm,-,N/A,,Clear,0,2013-05-08 16:53:00
12:53 PM,79.0,54.0,42,30.03,10.0,West,6.9,-,N/A,,Clear,270,2013-05-08 17:53:00
1:53 PM,79.0,51.1,38,30.02,10.0,Calm,Calm,-,N/A,,Partly Cloudy,0,2013-05-08 18:53:00
2:53 PM,78.1,53.1,42,30.01,10.0,Variable,3.5,-,N/A,,Scattered Clouds,0,2013-05-08 19:53:00
3:53 PM,78.1,55.9,46,29.99,10.0,SW,5.8,-,N/A,,Partly Cloudy,230,2013-05-08 20:53:00
4:53 PM,79.0,52.0,39,29.99,10.0,WSW,6.9,-,N/A,,Partly Cloudy,250,2013-05-08 21:53:00
5:53 PM,75.9,55.0,48,29.99,10.0,WSW,5.8,-,N/A,,Clear,250,2013-05-08 22:53:00
6:53 PM,73.9,57.0,55,29.98,10.0,WSW,5.8,-,N/A,,Clear,240,2013-05-08 23:53:00
7:53 PM,69.1,57.0,65,29.99,10.0,WSW,3.5,-,N/A,,Clear,240,2013-05-09 00:53:00
8:53 PM,66.0,59.0,78,29.99,10.0,SSW,3.5,-,N/A,,Mostly Cloudy,210,2013-05-09 01:53:00
9:53 PM,69.1,57.0,65,30.01,10.0,SW,3.5,-,N/A,,Overcast,220,2013-05-09 02:53:00
10:53 PM,70.0,55.9,61,30.00,10.0,SW,4.6,-,N/A,,Overcast,220,2013-05-09 03:53:00
11:53 PM,70.0,55.9,61,30.00,10.0,SW,4.6,-,N/A,,Overcast,220,2013-05-09 04:53:00